Wetterstats.de || Aktuelle Messwerte || Aktuelle Wetterkarten NEU! || Radar / Satellit NEU! || Wetterarchiv || Langzeitwerte NEU! || Klim. Kenntage || Met. Ereignisse || Agrarwerte || Echtzeitwerte

Monatsübersicht für Juli 2020 Diagramm
 
Wetter Information zur Wetteranzeige
Zeitraffer
Tageslänge (hh:mm)
Höchsttemperatur in °C
Uhrzeit
Tiefsttemperatur in °C
Uhrzeit
Luftfeuchte (max., in %)
Uhrzeit
Luftfeuchte (min., in %)
Uhrzeit
Luftdruck (max., in hPa)
Uhrzeit
Luftdruck (min., in hPa)
Uhrzeit
Luftdruck (Ø, in hPa)
Regenrate (max, mm/h)
Uhrzeit
Niederschlag in mm
Verdunstung in mm
Solar in W/m² (Ø)
Solar in W/m² (max.)
UV-Index (max.)
Sonnenscheindauer (hh:mm)
Windrichtung (Ø)
Windstärke (Ø in km/h)
Windstärke (Ø in bft)
Windböe (max., in km/h)
Uhrzeit
Windböe (max., in bft)
Uhrzeit
Taupunkt (max., in °C)
Uhrzeit
Taupunkt (min., in °C)
Uhrzeit
Windchill (min., in °C)
Uhrzeit
Gewitterindex (max.)
Uhrzeit
Waldbrandindex (max.)
Uhrzeit
Graslandfeuerindex (max.)
Uhrzeit
Staubsturm-Index (max.)
Uhrzeit
01
Zeitraffer
16:49
24.0
11:00 Uhr
16.1
01:25 Uhr

95
23:50 Uhr
55
11:00 Uhr
1007.1
12:50 Uhr

1004.0
21:30 Uhr
1006.1
64,800
22:15 Uhr
15,800
3.099
220
854
10:10 Uhr
5.3
10:55 Uhr

04:00:00
6,5
1
37,0
08:10 Uhr

5
16.7
23:50 Uhr
8.9
00:50 Uhr
15.9
04:05 Uhr
4
17:05 Uhr

00:00 Uhr

00:00 Uhr

00:00 Uhr
02
Zeitraffer
16:48
25.1
15:15 Uhr
15.9
04:55 Uhr

97
02:40 Uhr
53
12:40 Uhr
1009.4
22:45 Uhr

1005.5
00:20 Uhr
1008.2
2,400
02:35 Uhr
0,200
4.267
375
1095
12:20 Uhr
6.5
12:15 Uhr

07:50:00
5,3
1
29,0
11:00 Uhr

4
16.9
00:20 Uhr
13.1
12:40 Uhr
15.2
06:20 Uhr
8
00:00 Uhr

00:00 Uhr

00:00 Uhr

00:00 Uhr
03
Zeitraffer
16:46
24.5
14:20 Uhr
16.2
06:05 Uhr

89
03:35 Uhr
43
15:20 Uhr
1015.5
23:15 Uhr

1009.2
00:00 Uhr
1013.0
2,400
05:15 Uhr
0,200
4.750
390
1139
14:25 Uhr
6.5
12:55 Uhr

09:15:00
5,9
1
32,2
13:05 Uhr

5
14.9
02:50 Uhr
10.1
15:20 Uhr
16.2
06:05 Uhr
6
03:00 Uhr

00:00 Uhr

00:00 Uhr

00:00 Uhr
04
Zeitraffer
16:45
26.5
14:55 Uhr
13.7
04:45 Uhr

80
04:45 Uhr
38
16:05 Uhr
1015.6
00:45 Uhr

1011.1
21:00 Uhr
1013.6
0,000
00:00 Uhr
0,000
5.867
418
1067
13:45 Uhr
6.6
12:50 Uhr

09:50:00
8,6
2
41,8
17:45 Uhr

6
14.1
10:05 Uhr
9.9
17:50 Uhr
13.7
04:45 Uhr
3
13:05 Uhr

00:00 Uhr

00:00 Uhr

00:00 Uhr
05
Zeitraffer
16:43
27.8
16:45 Uhr
19.6
03:50 Uhr

77
21:40 Uhr
49
17:30 Uhr
1011.7
00:15 Uhr

1006.5
19:15 Uhr
1009.0
0,000
00:00 Uhr
0,000
5.004
328
1042
15:20 Uhr
6.4
14:35 Uhr

06:20:00
10,5
2
48,3
12:25 Uhr

6
17.4
20:20 Uhr
12.8
05:50 Uhr
19.0
07:35 Uhr
6
16:05 Uhr

00:00 Uhr

00:00 Uhr

00:00 Uhr
06
Zeitraffer
16:42
23.2
15:55 Uhr
13.9
23:45 Uhr

91
04:40 Uhr
34
15:10 Uhr
1015.1
23:45 Uhr

1006.3
04:40 Uhr
1009.6
2,400
03:10 Uhr
0,200
5.486
414
1100
14:10 Uhr
6.0
12:20 Uhr

08:25:00
9,9
2
49,9
16:10 Uhr

6
16.4
03:15 Uhr
6.1
15:10 Uhr
10.9
23:30 Uhr
7
00:00 Uhr

00:00 Uhr

00:00 Uhr

00:00 Uhr
07
Zeitraffer
16:40
21.0
16:20 Uhr
10.6
04:55 Uhr

86
05:05 Uhr
37
15:10 Uhr
1018.7
11:00 Uhr

1015.1
00:00 Uhr
1017.2
0,000
00:00 Uhr
0,000
4.445
371
1111
13:05 Uhr
6.5
12:45 Uhr

07:35:00
7,8
2
37,0
14:05 Uhr

5
9.9
08:50 Uhr
4.9
15:10 Uhr
8.7
06:00 Uhr
0
00:00 Uhr

00:00 Uhr

00:00 Uhr

00:00 Uhr
08
Zeitraffer
16:38
18.3
13:20 Uhr
11.9
05:40 Uhr

89
05:00 Uhr
60
13:25 Uhr
1017.1
23:30 Uhr

1015.0
13:20 Uhr
1015.7
2,400
00:40 Uhr
0,800
2.286
190
703
12:40 Uhr
5.9
13:05 Uhr

02:00:00
6,6
1
27,4
14:50 Uhr

4
13.0
16:50 Uhr
8.8
00:00 Uhr
10.8
09:40 Uhr
2
17:05 Uhr

00:00 Uhr

00:00 Uhr

00:00 Uhr
09
Zeitraffer
16:37
20.7
12:05 Uhr
12.8
04:20 Uhr

95
16:10 Uhr
63
12:05 Uhr
1017.2
00:00 Uhr

1010.6
19:20 Uhr
1014.3
14,400
21:55 Uhr
6,600
1.981
191
719
11:15 Uhr
4.4
11:10 Uhr

02:35:00
5,3
1
27,4
10:45 Uhr

4
18.0
19:30 Uhr
11.4
00:00 Uhr
12.8
04:20 Uhr
5
20:05 Uhr

00:00 Uhr

00:00 Uhr

00:00 Uhr
10
Zeitraffer
16:35
27.8
13:25 Uhr
14.7
23:50 Uhr

99
06:15 Uhr
52
16:50 Uhr
1016.5
23:55 Uhr

1005.5
14:10 Uhr
1009.8
2,400
04:10 Uhr
1,000
2.946
226
911
12:50 Uhr
6.1
12:50 Uhr

02:35:00
7,1
2
46,7
16:50 Uhr

6
21.8
12:55 Uhr
10.3
23:50 Uhr
14.6
21:40 Uhr
9
15:00 Uhr

00:00 Uhr

00:00 Uhr

00:00 Uhr
11
Zeitraffer
16:33
21.4
16:40 Uhr
11.2
05:00 Uhr

88
05:05 Uhr
40
15:40 Uhr
1024.3
23:50 Uhr

1016.5
00:00 Uhr
1021.3
0,000
00:00 Uhr
0,000
4.572
406
1179
13:00 Uhr
6.6
13:00 Uhr

09:00:00
5,7
1
27,4
13:05 Uhr

4
10.5
00:05 Uhr
6.3
18:20 Uhr
11.2
03:20 Uhr
0
00:00 Uhr

00:00 Uhr

00:00 Uhr

00:00 Uhr
12
Zeitraffer
16:31
22.0
14:10 Uhr
8.8
04:35 Uhr

90
05:20 Uhr
36
16:25 Uhr
1026.7
09:05 Uhr

1024.3
00:00 Uhr
1025.9
0,000
00:00 Uhr
0,000
4.724
427
1076
12:35 Uhr
6.1
12:35 Uhr

09:10:00
5,4
1
32,2
17:40 Uhr

5
11.1
09:30 Uhr
5.4
13:40 Uhr
8.8
04:35 Uhr
0
00:00 Uhr

00:00 Uhr

00:00 Uhr

00:00 Uhr
13
Zeitraffer
16:29
24.5
17:10 Uhr
12.6
01:30 Uhr

80
23:50 Uhr
37
16:45 Uhr
1026.5
00:10 Uhr

1019.7
23:50 Uhr
1023.7
0,000
00:00 Uhr
0,000
4.140
354
1056
13:20 Uhr
6.4
13:15 Uhr

08:00:00
3,7
1
20,9
12:35 Uhr

4
10.7
11:05 Uhr
8.2
00:00 Uhr
12.6
01:30 Uhr
0
00:00 Uhr

00:00 Uhr

00:00 Uhr

00:00 Uhr
14
Zeitraffer
16:26
28.7
16:45 Uhr
11.6
02:25 Uhr

85
05:10 Uhr
28
14:55 Uhr
1019.7
00:00 Uhr

1011.5
20:40 Uhr
1015.3
0,000
00:00 Uhr
0,000
5.537
420
1005
12:40 Uhr
6.2
13:00 Uhr

10:10:00
5,5
1
30,6
13:10 Uhr

5
12.5
10:20 Uhr
7.2
18:15 Uhr
11.6
02:25 Uhr
0
00:00 Uhr

00:00 Uhr

00:00 Uhr

00:00 Uhr
15
Zeitraffer
16:24
23.5
13:30 Uhr
13.1
23:15 Uhr

97
23:25 Uhr
51
00:10 Uhr
1013.7
23:50 Uhr

1010.6
07:15 Uhr
1011.6
7,200
19:20 Uhr
5,000
2.871
236
861
13:25 Uhr
5.1
13:25 Uhr

05:00:00
5,5
1
27,4
15:30 Uhr

4
14.3
15:00 Uhr
8.6
01:15 Uhr
13.1
23:15 Uhr
3
15:00 Uhr

00:00 Uhr

00:00 Uhr

00:00 Uhr


 
Wetter Information zur Wetteranzeige
Zeitraffer
Tageslänge (hh:mm)
Höchsttemperatur in °C
Uhrzeit
Tiefsttemperatur in °C
Uhrzeit
Luftfeuchte (max., in %)
Uhrzeit
Luftfeuchte (min., in %)
Uhrzeit
Luftdruck (max., in hPa)
Uhrzeit
Luftdruck (min., in hPa)
Uhrzeit
Luftdruck (Ø, in hPa)
Regenrate (max, mm/h)
Uhrzeit
Niederschlag in mm
Verdunstung in mm
Solar in W/m² (Ø)
Solar in W/m² (max.)
UV-Index (max.)
Sonnenscheindauer (hh:mm)
Windrichtung (Ø)
Windstärke (Ø in km/h)
Windstärke (Ø in bft)
Windböe (max., in km/h)
Uhrzeit
Windböe (max., in bft)
Uhrzeit
Taupunkt (max., in °C)
Uhrzeit
Taupunkt (min., in °C)
Uhrzeit
Windchill (min., in °C)
Uhrzeit
Gewitterindex (max.)
Uhrzeit
Waldbrandindex (max.)
Uhrzeit
Graslandfeuerindex (max.)
Uhrzeit
Staubsturm-Index (max.)
Uhrzeit
16
Zeitraffer
16:22
21.1
13:20 Uhr
12.5
04:25 Uhr

99
05:40 Uhr
54
13:15 Uhr
1017.0
23:45 Uhr

1013.7
00:00 Uhr
1014.9
40,800
13:40 Uhr
7,400
3.099
299
1088
12:20 Uhr
6.0
12:20 Uhr

07:10:00
4,6
1
29,0
18:30 Uhr

4
15.2
10:45 Uhr
10.2
15:40 Uhr
12.5
04:25 Uhr
4
11:05 Uhr

00:00 Uhr

00:00 Uhr

00:00 Uhr
17
Zeitraffer
16:20
21.7
17:55 Uhr
10.4
04:55 Uhr

95
05:50 Uhr
63
17:55 Uhr
1020.2
23:55 Uhr

1016.8
01:05 Uhr
1018.2
0,000
00:00 Uhr
0,000
2.438
237
707
09:30 Uhr
3.2
10:45 Uhr

04:25:00
3,6
1
20,9
10:50 Uhr

4
15.2
16:55 Uhr
9.4
03:15 Uhr
10.4
04:55 Uhr
2
00:00 Uhr

00:00 Uhr

00:00 Uhr

00:00 Uhr
18
Zeitraffer
16:17
27.3
15:45 Uhr
10.9
05:00 Uhr

98
05:50 Uhr
45
15:30 Uhr
1020.5
01:20 Uhr

1017.4
19:15 Uhr
1019.4
0,000
00:00 Uhr
0,000
4.369
409
1060
14:45 Uhr
6.1
13:00 Uhr

10:15:00
3,2
1
16,1
13:10 Uhr

3
18.2
10:45 Uhr
10.2
05:00 Uhr
10.9
05:00 Uhr
5
13:00 Uhr

00:00 Uhr

00:00 Uhr

00:00 Uhr
19
Zeitraffer
16:14
30.7
14:30 Uhr
15.3
05:55 Uhr

92
06:05 Uhr
34
14:15 Uhr
1018.5
00:00 Uhr

1013.8
17:15 Uhr
1016.0
2,400
18:25 Uhr
0,600
4.191
359
1004
12:35 Uhr
6.1
12:05 Uhr

07:20:00
3,8
1
27,4
17:35 Uhr

4
18.5
19:05 Uhr
12.1
14:15 Uhr
15.3
05:55 Uhr
7
01:00 Uhr

00:00 Uhr

00:00 Uhr

00:00 Uhr
20
Zeitraffer
16:11
26.1
12:15 Uhr
14.1
23:55 Uhr

94
03:50 Uhr
54
15:55 Uhr
1019.4
23:50 Uhr

1013.3
06:45 Uhr
1015.2
4,800
14:35 Uhr
0,400
3.658
314
993
12:05 Uhr
5.7
12:10 Uhr

06:15:00
4,4
1
35,4
12:50 Uhr

5
19.6
12:25 Uhr
11.1
23:50 Uhr
14.1
23:55 Uhr
8
12:05 Uhr

00:00 Uhr

00:00 Uhr

00:00 Uhr
21
Zeitraffer
16:09
23.2
14:45 Uhr
12.3
04:30 Uhr

87
01:30 Uhr
31
17:55 Uhr
1021.9
23:40 Uhr

1019.4
00:00 Uhr
1020.7
0,000
00:00 Uhr
0,000
4.750
426
1025
13:20 Uhr
6.2
13:20 Uhr

08:35:00
4,9
1
32,2
13:50 Uhr

5
12.2
09:30 Uhr
4.3
18:40 Uhr
12.3
04:30 Uhr
2
00:00 Uhr

00:00 Uhr

00:00 Uhr

00:00 Uhr
22
Zeitraffer
16:06
23.4
15:20 Uhr
10.3
05:10 Uhr

83
05:25 Uhr
31
15:50 Uhr
1023.0
09:30 Uhr

1018.9
20:40 Uhr
1021.4
0,000
00:00 Uhr
0,000
4.750
421
1016
13:30 Uhr
6.4
12:20 Uhr

09:05:00
4,7
1
33,8
16:55 Uhr

5
10.3
08:30 Uhr
4.8
14:35 Uhr
10.3
05:10 Uhr
0
00:00 Uhr

00:00 Uhr

00:00 Uhr

00:00 Uhr
23
Zeitraffer
16:03
22.8
15:45 Uhr
13.4
05:25 Uhr

90
05:20 Uhr
38
15:45 Uhr
1019.3
00:00 Uhr

1014.3
23:45 Uhr
1017.1
2,400
03:45 Uhr
0,800
3.480
299
1136
13:55 Uhr
6.5
13:55 Uhr

06:10:00
3,4
1
22,5
15:50 Uhr

4
12.6
09:15 Uhr
6.8
16:20 Uhr
13.4
05:25 Uhr
2
08:05 Uhr

00:00 Uhr

00:00 Uhr

00:00 Uhr
24
Zeitraffer
16:01
28.6
14:10 Uhr
10.9
05:15 Uhr

82
05:20 Uhr
31
16:05 Uhr
1014.4
00:00 Uhr

1007.6
17:30 Uhr
1010.8
0,000
00:00 Uhr
0,000
5.385
404
1092
14:05 Uhr
6.7
13:30 Uhr

09:50:00
6,0
1
33,8
19:10 Uhr

5
12.6
09:00 Uhr
7.7
04:30 Uhr
10.9
05:15 Uhr
2
23:05 Uhr

00:00 Uhr

00:00 Uhr

00:00 Uhr
25
Zeitraffer
15:57
26.4
15:25 Uhr
13.3
05:20 Uhr

83
05:10 Uhr
45
17:10 Uhr
1013.6
11:15 Uhr

1010.8
00:10 Uhr
1012.3
0,000
00:00 Uhr
0,000
4.089
341
1042
13:45 Uhr
6.0
12:55 Uhr

07:25:00
3,8
1
22,5
13:05 Uhr

4
14.9
13:50 Uhr
10.5
05:05 Uhr
13.3
05:20 Uhr
4
16:05 Uhr

00:00 Uhr

00:00 Uhr

00:00 Uhr
26
Zeitraffer
15:55
25.1
14:45 Uhr
16.3
06:00 Uhr

92
17:10 Uhr
54
14:45 Uhr
1015.6
23:45 Uhr

1009.0
08:00 Uhr
1011.4
7,200
16:30 Uhr
2,400
2.870
231
1021
14:40 Uhr
5.6
14:35 Uhr

05:05:00
6,3
1
46,7
16:05 Uhr

6
18.1
17:50 Uhr
13.4
06:00 Uhr
16.0
05:30 Uhr
6
16:00 Uhr

00:00 Uhr

00:00 Uhr

00:00 Uhr
27
Zeitraffer
15:51
27.6
16:40 Uhr
12.8
05:30 Uhr

96
05:55 Uhr
38
16:45 Uhr
1018.7
08:50 Uhr

1012.4
23:45 Uhr
1016.4
0,000
00:00 Uhr
0,000
4.013
347
1041
12:20 Uhr
6.0
12:20 Uhr

08:20:00
3,7
1
22,5
19:20 Uhr

4
17.0
21:15 Uhr
11.4
17:15 Uhr
12.8
05:30 Uhr
6
00:00 Uhr

00:00 Uhr

00:00 Uhr

00:00 Uhr
28
Zeitraffer
15:48
29.6
13:40 Uhr
18.2
05:50 Uhr

73
06:40 Uhr
39
13:50 Uhr
1012.4
00:00 Uhr

1007.6
07:50 Uhr
1009.0
0,000
00:00 Uhr
0,000
3.734
397
1071
13:30 Uhr
6.7
13:30 Uhr

05:00:00
8,5
2
43,5
14:35 Uhr

6
16.2
11:00 Uhr
13.0
04:15 Uhr
16.6
05:45 Uhr
5
00:00 Uhr

00:00 Uhr

00:00 Uhr

00:00 Uhr
Stationsstandorte || Wetterblog || Wissenswertes || Downloads || Seitenhistorie || Partner || Impressum / Datenschutz